Location: Boleita
(10.4833°N, 66.8167°W)
Time: 02:22:11
(UTC+00:00)

DELTA 2 R/B (1) - Pass Details

Date: 08 November 2025
Orbit: 786 x 800 km, 39.6° (Epoch: 09 December)

Event Time Altitude Azimuth Distance (km) Brightness Sun altitude
Rises 00:00:29 0° 224° (SW) 3,269 7.6 -29.0°
Reaches altitude 10° 00:02:58 10° 223° (SW) 2,338 6.6 -29.6°
Enters shadow 00:07:01 49° 207° (SSW) 1,004 4.2 -30.6°
